Location: ???????
(54.9567°N, 38.2836°E)
Time: 08:42:47
(UTC+00:00)

Meteor 1-28 Rocket - Pass Details

Date: 14 April 2024
Orbit: 475 x 492 km, 97.5° (Epoch: 19 May)

Event Time Altitude Azimuth Distance (km) Brightness Sun altitude
Exits shadow 00:42:15 24° 245° (WSW) 1,079 4.2 -13.8°
Maximum altitude 00:43:02 26° 266° (W) 1,025 4.2 -13.7°
Drops below altitude 10° 00:46:10 10° 324° (NW) 1,715 5.9 -13.3°
Sets 00:48:31 0° 338° (NNW) 2,604 7.0 -13.1°
